ARG1587 SANT-SACO

Flight info

Callsign ARG1587
Flight time N/A
Altitude 31000
Route IMBOL3E IMBOL UW5 DONKA DONKA1Q
Aircraft B738/M-SDE2E3FGHIRWXY/LB1

Departure

Time N/A
Airport Teniente Benjamín Matienzo International Airport (SANT)

Arrival

Time 2026-05-03 20:56
Airport Ingeniero Aeronáutico Ambrosio L.V. Taravella International Airport (SACO)
Time Latitude Longitude Altitude Speed Heading
2026-05-03 20:15 -28.37193 -64.81673 31010 ft 440 kts 171°
2026-05-03 20:15 -28.43241 -64.80547 31008 ft 441 kts 171°
2026-05-03 20:16 -28.49238 -64.79428 31004 ft 441 kts 171°
2026-05-03 20:16 -28.55366 -64.78284 31001 ft 441 kts 171°
2026-05-03 20:17 -28.61377 -64.77160 31001 ft 441 kts 171°
2026-05-03 20:17 -28.67422 -64.75965 31002 ft 440 kts 169°
2026-05-03 20:18 -28.73447 -64.74648 31000 ft 440 kts 169°
2026-05-03 20:18 -28.79453 -64.73327 31002 ft 439 kts 169°
2026-05-03 20:19 -28.85456 -64.72021 31000 ft 439 kts 169°
2026-05-03 20:19 -28.91445 -64.70723 31001 ft 438 kts 169°
2026-05-03 20:20 -28.97434 -64.69427 31001 ft 438 kts 169°
2026-05-03 20:20 -29.03426 -64.68127 31002 ft 438 kts 169°
2026-05-03 20:21 -29.09413 -64.66827 31001 ft 437 kts 169°
2026-05-03 20:21 -29.15389 -64.65528 31001 ft 437 kts 169°
2026-05-03 20:22 -29.21369 -64.64226 31001 ft 437 kts 169°
2026-05-03 20:22 -29.27350 -64.62923 31002 ft 437 kts 169°
2026-05-03 20:23 -29.33293 -64.61626 31002 ft 438 kts 169°
2026-05-03 20:23 -29.39277 -64.60319 31001 ft 438 kts 169°
2026-05-03 20:24 -29.45263 -64.59009 31002 ft 438 kts 169°
2026-05-03 20:24 -29.51251 -64.57698 31001 ft 438 kts 169°
2026-05-03 20:25 -29.57240 -64.56385 31001 ft 438 kts 169°
2026-05-03 20:25 -29.63239 -64.55122 31001 ft 438 kts 171°
2026-05-03 20:26 -29.69256 -64.54008 31002 ft 438 kts 171°
2026-05-03 20:26 -29.75272 -64.52898 31001 ft 438 kts 171°
2026-05-03 20:27 -29.81188 -64.51785 30662 ft 424 kts 171°
2026-05-03 20:27 -29.84082 -64.51237 30415 ft 419 kts 171°
2026-05-03 20:27 -29.86953 -64.50693 30165 ft 417 kts 171°
2026-05-03 20:27 -29.89814 -64.50151 29920 ft 417 kts 171°
2026-05-03 20:28 -29.92677 -64.49608 29673 ft 417 kts 171°
2026-05-03 20:28 -29.95537 -64.49058 29427 ft 416 kts 170°
2026-05-03 20:28 -29.98387 -64.48466 29179 ft 416 kts 169°
2026-05-03 20:28 -30.01225 -64.47853 28930 ft 415 kts 169°
2026-05-03 20:29 -30.04060 -64.47235 28671 ft 413 kts 169°
2026-05-03 20:29 -30.06869 -64.46624 28292 ft 408 kts 169°
2026-05-03 20:29 -30.09646 -64.46023 27866 ft 404 kts 169°
2026-05-03 20:29 -30.12402 -64.45429 27440 ft 401 kts 169°
2026-05-03 20:30 -30.15137 -64.44841 27014 ft 398 kts 169°
2026-05-03 20:30 -30.17852 -64.44258 26590 ft 395 kts 169°
2026-05-03 20:30 -30.20513 -64.43687 26181 ft 392 kts 169°
2026-05-03 20:30 -30.23186 -64.43113 25749 ft 390 kts 169°
2026-05-03 20:31 -30.25846 -64.42542 25327 ft 387 kts 169°
2026-05-03 20:31 -30.28481 -64.41975 24911 ft 384 kts 169°
2026-05-03 20:31 -30.31110 -64.41410 24496 ft 382 kts 169°
2026-05-03 20:31 -30.33711 -64.40850 24084 ft 380 kts 169°
2026-05-03 20:32 -30.36302 -64.40292 23667 ft 377 kts 169°
2026-05-03 20:32 -30.38871 -64.39738 23255 ft 375 kts 169°
2026-05-03 20:32 -30.41347 -64.38849 22820 ft 373 kts 151°
2026-05-03 20:32 -30.43479 -64.37169 22456 ft 369 kts 143°
2026-05-03 20:33 -30.44821 -64.35964 22175 ft 368 kts 142°
2026-05-03 20:33 -30.47498 -64.33510 21635 ft 366 kts 142°
2026-05-03 20:33 -30.49494 -64.31691 21233 ft 363 kts 142°
2026-05-03 20:33 -30.50816 -64.30497 20968 ft 362 kts 142°
2026-05-03 20:34 -30.53469 -64.28120 20435 ft 359 kts 142°
2026-05-03 20:34 -30.55408 -64.26392 20054 ft 357 kts 142°
2026-05-03 20:34 -30.57377 -64.24637 19662 ft 355 kts 142°
2026-05-03 20:34 -30.59462 -64.23144 19250 ft 353 kts 159°
2026-05-03 20:35 -30.61837 -64.22544 18884 ft 349 kts 176°
2026-05-03 20:35 -30.64253 -64.22421 18511 ft 346 kts 179°
2026-05-03 20:35 -30.66656 -64.22366 18123 ft 345 kts 179°
2026-05-03 20:35 -30.69052 -64.22322 17493 ft 348 kts 179°
2026-05-03 20:36 -30.71549 -64.22267 16515 ft 366 kts 179°
2026-05-03 20:36 -30.74046 -64.21956 16257 ft 357 kts 163°
2026-05-03 20:36 -30.76226 -64.20702 16121 ft 346 kts 142°
2026-05-03 20:36 -30.77800 -64.18652 16024 ft 341 kts 120°
2026-05-03 20:37 -30.78862 -64.16184 16008 ft 340 kts 114°
2026-05-03 20:37 -30.79804 -64.13669 16000 ft 339 kts 113°
2026-05-03 20:37 -30.80414 -64.11997 15911 ft 340 kts 113°
2026-05-03 20:37 -30.81344 -64.09432 15370 ft 347 kts 113°
2026-05-03 20:38 -30.82592 -64.05965 14711 ft 348 kts 112°
2026-05-03 20:38 -30.83524 -64.03369 14215 ft 348 kts 112°
2026-05-03 20:38 -30.84453 -64.00772 13716 ft 347 kts 112°
2026-05-03 20:38 -30.85485 -63.98242 13202 ft 347 kts 124°
2026-05-03 20:39 -30.87120 -63.96186 12719 ft 346 kts 139°
2026-05-03 20:39 -30.88344 -63.95002 12394 ft 345 kts 141°
2026-05-03 20:39 -30.90891 -63.92665 11418 ft 353 kts 142°
2026-05-03 20:39 -30.92819 -63.90920 10685 ft 358 kts 142°
2026-05-03 20:40 -30.94825 -63.89113 9927 ft 362 kts 143°
2026-05-03 20:40 -30.96232 -63.88068 9416 ft 364 kts 154°
2026-05-03 20:40 -30.98588 -63.86973 8687 ft 365 kts 161°
2026-05-03 20:40 -31.01006 -63.86024 7935 ft 367 kts 162°
2026-05-03 20:41 -31.03433 -63.85104 7186 ft 368 kts 162°
2026-05-03 20:41 -31.05869 -63.84188 6527 ft 366 kts 162°
2026-05-03 20:41 -31.09005 -63.83016 6252 ft 347 kts 162°
2026-05-03 20:41 -31.10533 -63.82445 6155 ft 337 kts 162°
2026-05-03 20:42 -31.12719 -63.81630 6035 ft 323 kts 162°
2026-05-03 20:42 -31.14808 -63.80851 5998 ft 307 kts 162°
2026-05-03 20:42 -31.16793 -63.80110 5986 ft 292 kts 162°
2026-05-03 20:42 -31.18712 -63.79393 5994 ft 289 kts 162°
2026-05-03 20:43 -31.20630 -63.78677 6003 ft 290 kts 162°
2026-05-03 20:43 -31.22532 -63.77967 6008 ft 291 kts 162°
2026-05-03 20:43 -31.24458 -63.77248 6009 ft 291 kts 162°
2026-05-03 20:43 -31.26376 -63.76532 5996 ft 286 kts 162°
2026-05-03 20:44 -31.28217 -63.75844 5976 ft 268 kts 162°
2026-05-03 20:44 -31.29928 -63.75203 5976 ft 248 kts 162°
2026-05-03 20:44 -31.31516 -63.74608 5977 ft 232 kts 162°
2026-05-03 20:44 -31.33047 -63.74033 5995 ft 231 kts 162°
2026-05-03 20:45 -31.34571 -63.73461 6001 ft 230 kts 162°
2026-05-03 20:45 -31.36099 -63.72888 6008 ft 231 kts 162°
2026-05-03 20:45 -31.37639 -63.72310 6013 ft 233 kts 162°
2026-05-03 20:45 -31.39155 -63.71741 5993 ft 223 kts 162°
2026-05-03 20:46 -31.40589 -63.71202 5976 ft 210 kts 162°
2026-05-03 20:46 -31.41933 -63.70695 5973 ft 196 kts 162°
2026-05-03 20:46 -31.43209 -63.70214 5994 ft 193 kts 164°
2026-05-03 20:46 -31.44617 -63.70155 6028 ft 222 kts 201°
2026-05-03 20:47 -31.45893 -63.71333 6029 ft 254 kts 239°
2026-05-03 20:47 -31.46353 -63.73335 6005 ft 260 kts 275°
2026-05-03 20:47 -31.45729 -63.75303 6016 ft 261 kts 304°
2026-05-03 20:47 -31.44853 -63.77139 5944 ft 263 kts 292°
2026-05-03 20:48 -31.44275 -63.79192 5687 ft 267 kts 284°
2026-05-03 20:48 -31.43911 -63.81319 5435 ft 265 kts 278°
2026-05-03 20:48 -31.43692 -63.83450 5178 ft 262 kts 275°
2026-05-03 20:48 -31.43568 -63.85537 5030 ft 257 kts 273°
2026-05-03 20:49 -31.43498 -63.87621 5005 ft 255 kts 271°
2026-05-03 20:49 -31.43461 -63.89659 4995 ft 253 kts 271°
2026-05-03 20:49 -31.43445 -63.91719 4999 ft 254 kts 270°
2026-05-03 20:49 -31.43440 -63.93807 5012 ft 258 kts 270°
2026-05-03 20:50 -31.43445 -63.95907 5006 ft 258 kts 270°
2026-05-03 20:50 -31.43454 -63.97991 4983 ft 251 kts 269°
2026-05-03 20:50 -31.43466 -64.00040 4609 ft 254 kts 269°
2026-05-03 20:50 -31.43478 -64.02076 4530 ft 245 kts 269°
2026-05-03 20:51 -31.43490 -64.04023 4495 ft 233 kts 269°
2026-05-03 20:51 -31.43497 -64.05873 4480 ft 221 kts 270°
2026-05-03 20:51 -31.43497 -64.07624 4478 ft 208 kts 270°
2026-05-03 20:51 -31.43496 -64.09263 4474 ft 195 kts 270°
2026-05-03 20:52 -31.43495 -64.10800 4480 ft 186 kts 270°
2026-05-03 20:52 -31.43494 -64.12316 4495 ft 186 kts 270°
2026-05-03 20:52 -31.43492 -64.13861 4112 ft 202 kts 270°
2026-05-03 20:52 -31.43418 -64.15572 3744 ft 209 kts 285°
2026-05-03 20:53 -31.42693 -64.16938 3622 ft 200 kts 319°
2026-05-03 20:53 -31.41557 -64.17847 3425 ft 197 kts 328°
2026-05-03 20:53 -31.40383 -64.18653 3168 ft 194 kts 329°
2026-05-03 20:53 -31.39226 -64.19443 2921 ft 191 kts 329°
2026-05-03 20:54 -31.38108 -64.20210 2680 ft 180 kts 329°
2026-05-03 20:54 -31.35761 -64.20646 2246 ft 177 kts
2026-05-03 20:54 -31.34541 -64.20836 1957 ft 175 kts 354°
2026-05-03 20:55 -31.33333 -64.20765 1800 ft 177 kts 357°
2026-05-03 20:55 -31.32122 -64.20818 1624 ft 166 kts 356°
2026-05-03 20:55 -31.31070 -64.20839 1618 ft 136 kts 359°
2026-05-03 20:55 -31.30356 -64.20849 1617 ft 77 kts 359°
2026-05-03 20:56 -31.29934 -64.20857 1617 ft 54 kts 358°
2026-05-03 20:56 -31.29646 -64.20892 1616 ft 22 kts 343°
2026-05-03 20:56 -31.29599 -64.20885 1611 ft 3 kts 68°
2026-05-03 20:56 -31.29614 -64.20855 1614 ft 6 kts 144°
2026-05-03 20:57 -31.29683 -64.20849 1619 ft 16 kts 182°
2026-05-03 20:57 -31.29833 -64.20854 1615 ft 27 kts 178°
2026-05-03 20:57 -31.30055 -64.20848 1617 ft 37 kts 178°
2026-05-03 20:57 -31.30341 -64.20842 1621 ft 45 kts 179°
2026-05-03 20:58 -31.30682 -64.20840 1612 ft 52 kts 180°
2026-05-03 20:58 -31.31065 -64.20840 1619 ft 57 kts 179°
2026-05-03 20:58 -31.31390 -64.20839 1619 ft 29 kts 185°
2026-05-03 20:58 -31.31472 -64.20906 1615 ft 9 kts 268°
2026-05-03 20:59 -31.31469 -64.20940 1612 ft 0 kts 276°
2026-05-03 20:59 -31.31467 -64.20970 1612 ft 8 kts 272°
2026-05-03 20:59 -31.31473 -64.21059 1615 ft 7 kts 261°
2026-05-03 21:00 -31.31475 -64.21124 1619 ft 13 kts 256°
2026-05-03 21:00 -31.31483 -64.21161 1613 ft 5 kts 256°
2026-05-03 21:00 -31.31486 -64.21179 1613 ft 3 kts 258°
2026-05-03 21:00 -31.31487 -64.21181 1613 ft 0 kts 258°